Location: Dana
(41.8364°N, 106.7042°W)
Time: 14:05:50
(UTC+00:00)

Altair - Pass Details

Date: 16 May 2026
Orbit: 1501 x 1682 km, 47.2° (Epoch: 6 June)

Event Time Altitude Azimuth Distance (km) Brightness Sun altitude
Rises 20:40:49 0° 285° (WNW) 4,930 10.4 59.4°
Reaches altitude 10° 20:47:31 10° 255° (WSW) 3,912 10.3 58.4°
Maximum altitude 20:49:53 11° 240° (WSW) 3,813 10.3 58.1°
Drops below altitude 10° 20:52:16 10° 226° (SW) 3,882 10.3 57.7°
Sets 20:58:52 0° 195° (SSW) 4,817 10.5 56.7°
